Regional Weather Roundup
Issued by NWS Cleveland, OH

Home | Current Version | Previous Version | Text Only | Print | Product List | Glossary Off
Versions: 1 2 3 4 5 6 7 8 9 10 11 12 13 14 15 16 17 18 19 20 21 22 23 24 25 26 27 28 29 30 31 32 33 34 35 36 37 38 39 40 41 42 43 44 45 46 47 48 49 50

000
ASUS41 KCLE 261912
RWRCLE
OHIO REGIONAL WEATHER ROUNDUP
NATIONAL WEATHER SERVICE WILMINGTON, OH
300 PM EDT SUN MAR 26 2017

NOTE: "FAIR" INDICATES FEW OR NO CLOUDS BELOW 12,000 FEET WITH NO
SIGNIFICANT WEATHER AND/OR OBSTRUCTIONS TO VISIBILITY.

OHZ001>008-015>018-024>027-034-035-043-044-262000-
   NORTHWEST OHIO

CITY           SKY/WX    TMP DP  RH WIND       PRES   REMARKS
DEFIANCE       PTSUNNY   57  54  89 CALM      29.89F
FINDLAY        CLOUDY    62  54  74 S15       29.90F
TOLEDO EXPRESS CLOUDY    54  51  90 SE6       29.90F
TOLEDO EXEC    FAIR      57  55  93 E7        29.92F FOG
LIMA           LGT RAIN  59  54  83 S14       29.91F
$$

OHZ009>014-019>023-028>033-038-089-262000-
   NORTHEAST OHIO

CITY           SKY/WX    TMP DP  RH WIND       PRES   REMARKS
CLE-HOPKINS    LGT RAIN  63  54  72 S8        29.97F
CLE-LAKEFRONT  LGT RAIN  43  40  89 W3        29.96F
CUY CO. ARPT   LGT RAIN  52  48  87 NW9       29.98R FOG
LORAIN-ELYRIA  LGT RAIN  58  53  84 S5        29.95F
ASHTABULA      PTSUNNY   69  49  48 S17G24    29.96F
AKRON-CANTON   PTSUNNY   62  53  72 S16       29.98F
WOOSTER        PTSUNNY   63  51  65 S16G25    29.96F
MANSFIELD      CLOUDY    61  56  83 S15G24    29.95F
YOUNGSTOWN     CLOUDY    67  48  50 S14G22    29.97F
$$

OHZ042-051>053-060>062-070>072-077>081-262000-
  SOUTHWEST OHIO

CITY           SKY/WX    TMP DP  RH WIND       PRES   REMARKS
CINC-COVINGTON PTSUNNY   64  56  75 SW8       29.92F
CINC-LUNKEN    PTSUNNY   64  58  80 SW7       29.94F
HAMILTON       PTSUNNY   65  57  75 VRB5      29.93F
DAYTON         CLOUDY    60  54  80 S14       29.93F
WRIGHT-PAT AFB CLOUDY    61  59  92 S14       29.93F
DAYTON GENERAL PTSUNNY   61  56  83 S14       29.93F
WILMINGTON     PTSUNNY   62  58  86 S14       29.93F
$$

OHZ036-037-039>041-045>050-054>059-063>069-073>076-082>088-262000-
  CENTRAL AND SOUTHEAST OHIO

CITY           SKY/WX    TMP DP  RH WIND       PRES   REMARKS
COLUMBUS       RAIN      57  54  89 SW9G23    29.96F VSB 1
OSU AIRPORT    RAIN      57  55  93 SW8       29.96F FOG
BOLTON FIELD   LGT RAIN  55  54  94 S5        29.96F
RICKENBACK AFB RAIN      56  56  99 SW10      29.97S
NEWARK         LGT RAIN  62  55  77 S13G20    29.95F
MARION         LGT RAIN  59  54  83 SW18G25   29.96F
LANCASTER      LGT RAIN  64  56  75 S12       29.97F
ZANESVILLE     PTSUNNY   66  52  60 S17       29.97F
NEW PHILLY     CLOUDY    64  53  67 S9G20     29.99F
$$



USA.gov is the U.S. government's official web portal to all federal, state and local government web resources and services.